Location: Treviso
(45.6669°N, 12.2430°E)
Time: 08:18:37
(UTC+02:00)

ISS - Pass Details

Date: 22 May 2018
Orbit: 402 x 407 km, 51.6° (Epoch: 26 May)

Event Time Altitude Azimuth Distance (km) Brightness Sun altitude
Rises 22:58:44 0° 256° (WSW) 2,314 0.2 -17.6°
Reaches altitude 10° 23:00:51 10° 262° (W) 1,456 -0.7 -17.8°
Maximum altitude 23:04:02 49° 339° (NNW) 525 -2.9 -18.1°
Drops below altitude 10° 23:07:14 10° 56° (NE) 1,459 -1.0 -18.4°
Sets 23:09:21 0° 62° (ENE) 2,320 0.0 -18.6°
